Weather in Tân An

Vietnam     10°32′21″N   106°24′51″E
В апреле 2022 года жителям России запретили посещать сайт meteo.paraplan.net по решению Генеральной прокуратуры. Аудитория сайта уменьшилась в 10 раз. Владельцы сайта не видят смысла в поддержке погодного сервера в таких условиях. Сайт будет закрыт в октябре.
temp.,
°C
wind,
m/s
gust,
m/s
humid.,
%
clouds,
%
prec.,
mm/h
press.,
hPa
HPBL,
m
26 september, mon
mon2601:00+25w1287100 2.4 100917
04:00+24nnw2496100 0.7 1008202
07:00+24nnw139215 0.8 1009158
10:00+29nw3470100 0.0 1009912
13:00+31nw346689 0.9 10071152
16:00+28nw3581100 4.7 1006366
19:00+26nw2490100 6.6 100871
22:00+24nnw2495100 3.6 1009140
27 september, tue
tue2701:00+24nw2795100 7.8 1007278
04:00+24nw2796100 0.0 1006306
07:00+24nw159670 0.0 1008297
10:00+29nw4672100 0.0 10081051
13:00+29wnw4672100 1.2 1005946
16:00+28w3577100 0.4 1003382
19:00+24w3993100 5.6 1005224
22:00+24wsw41291100 1.3 1006526
28 september, wed
wed2801:00+24wsw41292100 1.3 1004526
04:00+24wsw51389100 0.5 1003556
07:00+25wsw51487100 0.5 1004895
10:00+28w81475100 0.0 10051203
13:00+26w61483100 0.0 10021114
16:00+26wsw71584100 0.0 10021195
19:00+25wsw61486100 0.1 1003989
22:00+25wsw41388100 0.3 1005796
29 september, thu
thu2901:00+24sw51392100 5.3 1004717
04:00+24sw41392100 1.9 1004801
07:00+25sw31192100 1.9 1006721
10:00+28wsw51080100 1.3 10071065
13:00+27sw5108493 3.8 10051005
16:00+28sw59805 1.6 10041048
19:00+25sw2991100 1.7 1006316
22:00+24sw289226 0.0 1009253
30 september, fri
fri3001:00+24sw289298 0.0 1007272
04:00+24ssw2793100 0.3 1007243
07:00+25sw379096 0.4 1008294
10:00+30wsw3567100 0.0 10091158
13:00+29wsw357520 1.6 1006807
16:00+28sw4681100 2.9 1005699
19:00+26ssw2792100 4.6 1007219
22:00+25wsw2893100 0.0 1008265